QPF
0.00 0.01 0.01 0.00 0.00 0.02 0.04 0.01 0.00 0.00 0.00 0.01 0.01 0.00 0.00 0.00 0.00 0.00 0.00 0.00 0.00 0.00 0.00 0.00 0.00 0.00 0.00 0.00 0.00 0.00 0.00 0.00 0.00 0.00 0.00 0.00 0.00 0.00 0.00 0.00 0.00 0.00 0.00 0.00
0.00 0.00 0.01 0.01 0.01 0.03 0.02 0.01 0.00 0.00 0.00 0.01 0.00 0.00 0.00 0.00 0.00 0.01 0.01 0.01 0.00 0.00 0.00 0.00 0.00 0.00 0.00 0.00 0.00 0.00 0.00 0.00 0.00 0.00 0.00 0.00 0.00 0.00 0.00 0.00 0.01 0.00 0.01 0.00
0.00 0.00 0.00 0.00 0.00 0.04 0.03 0.00 0.00 0.00 0.00 0.00 0.00 0.00 0.00 0.00 0.00 0.00 0.01 0.00 0.00 0.00 0.00 0.00 0.00 0.00 0.00 0.00 0.00 0.00 0.00 0.00 0.00 0.00 0.00 0.00 0.00 0.00 0.01 0.01 0.01 0.00 0.01 0.00
0.01 0.00 0.00 0.00 0.00 0.03 0.04 0.01 0.00 0.00 0.00 0.00 0.00 0.00 0.00 0.00 0.00 0.00 0.00 0.00 0.00 0.00 0.00 0.00 0.00 0.00 0.00 0.00 0.00 0.00 0.00 0.00 0.00 0.00 0.00 0.00 0.00 0.00 0.00 0.00 0.00 0.01 0.00 0.00
0.01 0.01 0.00 0.00 0.00 0.04 0.06 0.01 0.01 0.00 0.00 0.00 0.00 0.00 0.00 0.00 0.00 0.01 0.00 0.00 0.00 0.00 0.00 0.00 0.00 0.00 0.00 0.00 0.00 0.00 0.00 0.00 0.00 0.00 0.00 0.00 0.00 0.00 0.00 0.00 0.00 0.00 0.00 0.00
0.02 0.02 0.01 0.00 0.00 0.05 0.05 0.02 0.01 0.01 0.00 0.00 0.00 0.00 0.00 0.00 0.01 0.01 0.00 0.00 0.00 0.00 0.00 0.00 0.00 0.00 0.00 0.00 0.00 0.00 0.00 0.00 0.00 0.00 0.00 0.00 0.00 0.00 0.00 0.00 0.00 0.00 0.00 0.00
0.03 0.03 0.02 0.00 0.00 0.02 0.02 0.01 0.02 0.04 0.01 0.00 0.00 0.00 0.00 0.00 0.01 0.01 0.00 0.00 0.00 0.00 0.00 0.00 0.00 0.00 0.00 0.00 0.00 0.00 0.00 0.00 0.00 0.00 0.00 0.00 0.00 0.00 0.00 0.00 0.00 0.00 0.00 0.00
0.03 0.02 0.02 0.01 0.01 0.01 0.01 0.03 0.04 0.02 0.00 0.00 0.00 0.00 0.00 0.00 0.00 0.00 0.00 0.00 0.00 0.00 0.00 0.00 0.00 0.00 0.00 0.00 0.00 0.00 0.00 0.00 0.00 0.00 0.00 0.00 0.00 0.00 0.00 0.00 0.00 0.00 0.00 0.00
0.02 0.02 0.00 0.00 0.02 0.01 0.02 0.02 0.04 0.05 0.03 0.01 0.00 0.00 0.00 0.00 0.00 0.00 0.00 0.00 0.00 0.00 0.00 0.00 0.00 0.00 0.00 0.00 0.00 0.00 0.00 0.00 0.01 0.01 0.02 0.02 0.00 0.00 0.00 0.00 0.00 0.00 0.00 0.00
0.01 0.01 0.00 0.00 0.01 0.01 0.02 0.01 0.03 0.09 0.06 0.01 0.02 0.00 0.00 0.00 0.00 0.00 0.00 0.00 0.00 0.00 0.00 0.00 0.00 0.00 0.00 0.01 0.00 0.00 0.00 0.01 0.00 0.00 0.01 0.00 0.00 0.00 0.00 0.00 0.00 0.00 0.00 0.00
0.00 0.00 0.00 0.00 0.02 0.01 0.02 0.00 0.01 0.05 0.06 0.04 0.02 0.01 0.01 0.01 0.00 0.00 0.00 0.00 0.00 0.00 0.00 0.00 0.00 0.00 0.01 0.01 0.01 0.00 0.00 0.00 0.00 0.00 0.01 0.00 0.00 0.00 0.00 0.00 0.00 0.00 0.00 0.00
0.01 0.00 0.00 0.00 0.01 0.01 0.03 0.01 0.02 0.03 0.05 0.01 0.00 0.01 0.00 0.00 0.00 0.00 0.00 0.00 0.00 0.00 0.00 0.00 0.01 0.01 0.01 0.01 0.01 0.00 0.00 0.00 0.01 0.00 0.00 0.00 0.00 0.00 0.00 0.00 0.00 0.00 0.00 0.00
0.01 0.01 0.01 0.01 0.01 0.01 0.02 0.02 0.02 0.01 0.01 0.00 0.00 0.00 0.00 0.00 0.00 0.00 0.00 0.00 0.00 0.00 0.00 0.00 0.03 0.00 0.00 0.00 0.01 0.00 0.00 0.00 0.00 0.00 0.00 0.00 0.00 0.00 0.00 0.00 0.00 0.00 0.00 0.00
0.02 0.01 0.01 0.02 0.02 0.03 0.02 0.01 0.01 0.00 0.00 0.00 0.00 0.00 0.00 0.00 0.00 0.00 0.00 0.00 0.00 0.00 0.00 0.00 0.01 0.00 0.00 0.00 0.00 0.01 0.00 0.00 0.00 0.00 0.00 0.00 0.00 0.00 0.00 0.00 0.00 0.00 0.00 0.00
0.03 0.02 0.03 0.03 0.04 0.04 0.02 0.01 0.00 0.00 0.00 0.00 0.00 0.00 0.00 0.00 0.00 0.00 0.00 0.00 0.00 0.00 0.00 0.00 0.00 0.00 0.00 0.00 0.00 0.00 0.00 0.00 0.00 0.00 0.00 0.00 0.00 0.00 0.00 0.00 0.00 0.00 0.00 0.00
0.02 0.02 0.03 0.03 0.04 0.01 0.01 0.01 0.00 0.00 0.00 0.00 0.00 0.00 0.00 0.00 0.00 0.00 0.00 0.00 0.00 0.01 0.01 0.00 0.00 0.00 0.00 0.00 0.00 0.00 0.00 0.00 0.00 0.00 0.00 0.00 0.00 0.00 0.00 0.00 0.00 0.00 0.00 0.00
0.01 0.01 0.02 0.02 0.02 0.01 0.00 0.00 0.00 0.00 0.00 0.00 0.00 0.00 0.00 0.00 0.00 0.00 0.00 0.01 0.01 0.01 0.01 0.00 0.00 0.00 0.00 0.00 0.00 0.00 0.00 0.00 0.00 0.00 0.00 0.00 0.00 0.00 0.00 0.00 0.00 0.00 0.00 0.00
0.01 0.01 0.01 0.01 0.00 0.00 0.00 0.00 0.00 0.00 0.00 0.00 0.00 0.00 0.00 0.00 0.00 0.00 0.00 0.00 0.00 0.00 0.00 0.00 0.00 0.00 0.00 0.00 0.00 0.00 0.00 0.00 0.00 0.00 0.00 0.00 0.00 0.00 0.00 0.00 0.00 0.00 0.00 0.00
0.00 0.00 0.00 0.00 0.00 0.00 0.00 0.00 0.00 0.00 0.00 0.00 0.00 0.00 0.00 0.00 0.00 0.00 0.00 0.00 0.00 0.00 0.00 0.00 0.00 0.00 0.00 0.00 0.00 0.00 0.00 0.00 0.00 0.00 0.00 0.00 0.00 0.00 0.00 0.00 0.00 0.00 0.00 0.00
0.00 0.00 0.00 0.00 0.00 0.00 0.00 0.00 0.00 0.00 0.00 0.00 0.00 0.00 0.00 0.00 0.00 0.00 0.00 0.00 0.00 0.00 0.00 0.00 0.00 0.00 0.00 0.00 0.00 0.00 0.00 0.00 0.00 0.00 0.00 0.00 0.00 0.00 0.00 0.00 0.00 0.00 0.00 0.00
0.00 0.00 0.00 0.00 0.00 0.00 0.00 0.00 0.00 0.00 0.00 0.00 0.00 0.00 0.00 0.00 0.00 0.00 0.00 0.00 0.00 0.00 0.00 0.00 0.00 0.00 0.00 0.00 0.00 0.00 0.00 0.00 0.00 0.00 0.00 0.00 0.00 0.00 0.00 0.00 0.00 0.00 0.00 0.00
0.00 0.00 0.00 0.00 0.00 0.00 0.00 0.00 0.00 0.00 0.00 0.00 0.00 0.00 0.00 0.00 0.00 0.00 0.00 0.00 0.00 0.00 0.00 0.00 0.00 0.00 0.00 0.00 0.00 0.00 0.00 0.00 0.00 0.00 0.00 0.00 0.00 0.00 0.00 0.00 0.00 0.00 0.00 0.00
0.00 0.00 0.00 0.00 0.00 0.00 0.00 0.00 0.00 0.00 0.00 0.00 0.00 0.00 0.00 0.00 0.00 0.00 0.00 0.00 0.00 0.00 0.00 0.00 0.00 0.00 0.00 0.00 0.00 0.00 0.00 0.00 0.00 0.00 0.00 0.00 0.00 0.00 0.00 0.00 0.00 0.00 0.00 0.00
0.00 0.00 0.00 0.00 0.00 0.00 0.00 0.00 0.00 0.00 0.00 0.00 0.00 0.00 0.00 0.00 0.00 0.00 0.00 0.00 0.00 0.00 0.00 0.01 0.00 0.00 0.00 0.00 0.00 0.00 0.00 0.00 0.00 0.00 0.00 0.00 0.00 0.00 0.00 0.00 0.00 0.00 0.00 0.00
0.00 0.00 0.00 0.00 0.00 0.00 0.00 0.00 0.00 0.01 0.01 0.00 0.00 0.00 0.00 0.00 0.00 0.00 0.00 0.00 0.00 0.00 0.00 0.00 0.00 0.00 0.00 0.00 0.00 0.00 0.00 0.00 0.00 0.00 0.00 0.00 0.00 0.00 0.00 0.00 0.00 0.00 0.00 0.00
0.00 0.00 0.01 0.01 0.00 0.01 0.01 0.00 0.01 0.02 0.01 0.00 0.00 0.00 0.00 0.00 0.00 0.00 0.00 0.00 0.00 0.00 0.00 0.00 0.00 0.00 0.00 0.00 0.00 0.00 0.00 0.00 0.00 0.00 0.00 0.00 0.00 0.00 0.00 0.00 0.00 0.00 0.00 0.00
0.00 0.00 0.00 0.00 0.00 0.00 0.00 0.00 0.01 0.01 0.00 0.00 0.00 0.00 0.00 0.00 0.00 0.00 0.00 0.00 0.00 0.00 0.00 0.00 0.00 0.00 0.00 0.00 0.00 0.00 0.00 0.00 0.00 0.00 0.00 0.00 0.00 0.00 0.00 0.00 0.00 0.00 0.00 0.00
MSLP
1010.23 1010.69 1011.28 1011.85 1012.24 1012.91 1013.45 1013.83 1014.96 1015.33 1014.88 1015.82 1015.45 1014.80 1013.21 1012.06 1010.62 1009.93 1009.38 1008.94 1008.74 1008.74 1008.75 1009.34 1009.96 1010.26 1010.36 1011.06 1011.88 1013.11 1013.93 1014.38 1014.97 1014.75 1014.38 1014.03 1014.43 1014.68 1015.65 1016.76 1017.74 1018.47 1019.33 1020.08
1009.27 1009.99 1010.53 1011.13 1011.56 1011.85 1012.57 1013.25 1014.82 1015.30 1015.02 1014.88 1015.03 1013.80 1012.69 1012.02 1010.49 1009.80 1009.49 1009.25 1008.85 1008.89 1009.31 1010.05 1010.16 1010.99 1011.88 1011.75 1012.56 1013.69 1014.45 1015.40 1016.24 1015.82 1015.16 1014.85 1015.19 1015.57 1016.12 1016.41 1017.18 1018.37 1019.95 1020.71
1008.26 1008.95 1009.60 1010.09 1010.64 1011.28 1012.14 1012.91 1014.46 1015.28 1015.11 1014.44 1013.89 1013.09 1012.37 1011.59 1010.48 1009.99 1010.07 1009.53 1009.39 1009.45 1009.62 1010.13 1010.73 1011.87 1012.90 1013.03 1013.78 1014.43 1015.20 1016.44 1016.99 1017.18 1016.86 1016.67 1016.42 1016.19 1016.21 1016.90 1017.89 1018.25 1019.14 1020.25
1007.00 1007.73 1008.34 1009.22 1009.73 1010.33 1011.44 1011.57 1012.10 1012.19 1013.43 1013.44 1012.83 1012.37 1011.66 1011.49 1010.53 1009.51 1009.33 1009.77 1009.20 1009.62 1010.27 1010.48 1011.14 1012.13 1013.57 1014.21 1014.70 1015.40 1016.30 1017.37 1017.72 1017.70 1017.44 1017.17 1016.74 1016.47 1016.42 1016.85 1016.99 1017.89 1018.77 1019.86
1005.64 1006.41 1006.98 1007.95 1008.74 1009.75 1010.49 1010.48 1010.16 1010.90 1011.08 1012.04 1012.68 1012.19 1011.31 1010.65 1009.80 1009.26 1008.86 1008.94 1009.15 1009.70 1010.28 1010.79 1011.30 1011.90 1013.16 1014.09 1015.17 1016.05 1016.92 1018.00 1018.42 1018.61 1017.74 1017.21 1016.67 1016.24 1016.26 1016.29 1016.61 1017.26 1018.41 1019.86
1003.93 1004.87 1005.82 1006.74 1007.54 1008.91 1009.14 1009.04 1008.05 1008.82 1009.78 1010.85 1011.66 1010.59 1010.02 1009.88 1009.88 1008.98 1008.66 1008.81 1009.31 1009.71 1010.15 1010.51 1011.38 1011.88 1012.50 1013.54 1014.79 1016.29 1017.42 1018.49 1019.19 1018.74 1017.50 1016.66 1016.36 1015.49 1015.35 1015.37 1015.79 1016.69 1018.11 1019.07
1002.33 1003.42 1004.49 1005.50 1006.26 1007.36 1008.19 1007.59 1007.16 1008.36 1008.75 1009.09 1009.13 1009.59 1009.96 1009.58 1009.23 1009.23 1008.52 1008.70 1009.36 1010.06 1009.90 1010.86 1011.79 1012.42 1012.99 1013.79 1014.53 1015.38 1017.05 1018.49 1019.03 1018.77 1018.00 1016.97 1015.57 1015.14 1015.08 1015.35 1015.84 1016.79 1018.32 1019.91
1000.79 1001.87 1003.15 1004.23 1005.18 1006.22 1007.35 1007.06 1006.96 1007.17 1007.69 1007.63 1008.63 1008.87 1009.03 1009.66 1009.54 1009.34 1009.18 1009.16 1009.15 1009.52 1010.81 1012.23 1013.17 1013.73 1013.95 1013.91 1014.36 1015.18 1016.20 1017.74 1018.71 1018.55 1017.48 1015.99 1015.38 1015.29 1015.35 1015.50 1016.10 1016.94 1018.44 1020.27
999.15 1000.41 1001.75 1003.02 1004.08 1005.31 1006.67 1007.07 1007.01 1006.93 1007.30 1006.72 1007.14 1007.99 1008.14 1008.93 1009.22 1009.79 1010.58 1009.99 1009.59 1010.19 1011.78 1013.08 1013.56 1013.65 1013.66 1013.81 1014.05 1014.69 1016.02 1016.85 1018.23 1017.80 1017.22 1016.05 1015.34 1015.03 1015.27 1015.73 1016.29 1016.73 1018.27 1020.25
997.30 998.93 1000.44 1001.92 1003.26 1004.49 1005.93 1006.11 1007.23 1007.31 1007.23 1006.21 1006.04 1006.34 1006.92 1007.51 1008.59 1009.69 1010.30 1010.26 1010.68 1010.82 1012.18 1013.38 1013.43 1013.18 1012.84 1013.10 1013.58 1014.53 1015.79 1016.95 1017.31 1017.86 1017.46 1015.84 1014.98 1015.23 1015.63 1016.70 1016.91 1017.04 1018.56 1020.22
995.38 997.44 999.34 1000.89 1002.38 1003.72 1005.16 1005.80 1006.66 1007.07 1007.17 1006.62 1006.34 1006.11 1005.74 1006.15 1007.08 1008.36 1009.65 1010.54 1011.35 1011.85 1012.77 1013.06 1012.98 1013.02 1012.61 1012.86 1013.25 1013.52 1014.43 1016.00 1016.69 1017.45 1017.43 1016.54 1015.67 1015.90 1016.31 1016.57 1017.00 1017.77 1019.02 1020.61
993.79 996.19 998.30 1000.13 1001.69 1003.07 1004.81 1005.78 1006.47 1007.08 1006.61 1007.15 1006.65 1006.12 1005.56 1004.35 1005.78 1007.36 1008.65 1009.25 1010.13 1011.12 1011.82 1012.21 1012.58 1012.71 1012.84 1012.80 1012.96 1013.13 1014.22 1014.39 1015.39 1016.43 1016.77 1016.65 1016.49 1016.53 1016.61 1016.92 1017.87 1019.01 1019.84 1021.35
993.10 995.57 997.73 999.62 1001.26 1002.74 1003.89 1005.34 1005.97 1007.07 1006.81 1007.57 1007.54 1007.37 1006.15 1005.51 1005.79 1006.54 1008.22 1008.97 1009.65 1010.07 1010.44 1011.37 1012.10 1012.66 1012.76 1013.07 1012.80 1013.37 1014.05 1014.27 1015.40 1016.74 1017.24 1017.22 1017.14 1017.17 1017.43 1017.83 1018.65 1019.68 1020.67 1021.77
993.41 995.68 997.72 999.57 1001.10 1002.50 1003.92 1004.87 1005.65 1006.08 1006.93 1008.12 1008.51 1007.68 1007.35 1006.85 1006.38 1006.89 1007.37 1008.26 1008.78 1009.40 1010.31 1011.36 1012.01 1012.39 1012.41 1013.05 1013.16 1013.68 1014.15 1014.82 1015.85 1016.98 1017.38 1017.65 1017.74 1018.04 1018.37 1018.96 1019.50 1020.55 1021.59 1022.39
994.12 996.17 998.01 999.67 1001.13 1002.61 1004.17 1005.12 1005.05 1004.62 1006.16 1007.93 1008.69 1008.27 1007.96 1007.23 1007.05 1007.60 1007.76 1008.25 1008.80 1009.73 1010.83 1011.58 1012.22 1012.24 1012.67 1013.33 1013.71 1014.42 1014.36 1014.93 1015.69 1016.17 1016.23 1016.83 1017.63 1018.39 1018.80 1019.35 1020.10 1020.84 1021.60 1022.81
995.11 996.84 998.46 1000.00 1001.41 1002.82 1004.46 1005.41 1004.46 1004.62 1005.45 1006.84 1009.07 1009.45 1008.51 1008.39 1007.99 1008.07 1008.13 1008.46 1009.01 1009.75 1010.67 1011.61 1011.88 1011.89 1012.56 1013.67 1014.26 1014.66 1014.91 1015.35 1015.34 1015.61 1016.03 1016.94 1017.74 1018.57 1018.96 1019.50 1020.32 1021.12 1021.84 1022.74
996.01 997.57 999.05 1000.51 1001.93 1003.19 1003.78 1003.14 1003.93 1004.81 1004.67 1006.83 1009.09 1009.45 1008.87 1008.12 1008.24 1008.43 1008.68 1008.85 1009.28 1009.83 1010.68 1011.38 1011.89 1012.30 1012.83 1013.68 1014.60 1014.91 1015.21 1015.68 1015.85 1016.06 1016.73 1018.08 1018.27 1018.74 1019.15 1019.70 1020.52 1021.26 1021.99 1022.86
996.93 998.51 1000.05 1001.54 1002.91 1002.92 1003.70 1004.16 1003.85 1004.43 1005.17 1006.39 1008.29 1008.97 1008.71 1007.98 1008.43 1009.01 1009.04 1009.46 1009.69 1009.99 1010.54 1011.21 1012.08 1012.65 1012.99 1013.95 1014.59 1015.07 1015.41 1015.90 1016.29 1016.41 1016.40 1017.15 1018.05 1018.91 1019.39 1019.91 1020.54 1021.26 1022.00 1022.78
998.48 999.86 1001.37 1002.30 1002.76 1003.53 1003.89 1003.82 1004.09 1004.30 1005.04 1006.21 1007.18 1007.89 1008.55 1008.27 1008.85 1009.14 1009.52 1009.78 1010.76 1010.54 1010.94 1011.27 1011.81 1012.49 1013.24 1013.14 1013.98 1014.85 1015.02 1015.29 1015.86 1016.39 1016.87 1017.49 1018.13 1018.89 1019.44 1019.97 1020.57 1021.21 1022.11 1022.92
1000.18 1001.14 1001.73 1003.16 1003.65 1003.66 1004.02 1004.66 1004.49 1004.36 1004.69 1005.52 1006.72 1007.16 1008.09 1008.49 1008.86 1009.61 1010.16 1010.31 1011.09 1011.46 1011.50 1011.24 1011.98 1012.56 1012.70 1012.89 1013.51 1014.16 1014.54 1014.84 1015.46 1016.14 1017.11 1017.63 1018.22 1018.91 1019.48 1020.05 1020.59 1021.34 1022.21 1023.21
999.96 1000.59 1001.76 1002.96 1003.27 1003.35 1004.16 1005.23 1005.38 1005.60 1006.22 1006.55 1006.95 1007.13 1007.57 1008.34 1009.09 1009.63 1010.15 1010.78 1011.03 1011.69 1011.89 1011.92 1012.53 1012.83 1012.99 1013.17 1013.71 1014.14 1014.41 1014.61 1015.25 1015.97 1016.64 1017.43 1018.12 1018.95 1019.72 1020.43 1020.92 1021.71 1022.67 1023.72
999.96 1001.01 1002.20 1003.06 1003.73 1004.42 1005.02 1005.63 1005.75 1005.81 1006.58 1006.77 1007.26 1007.43 1007.92 1008.36 1008.69 1010.04 1010.44 1011.29 1011.67 1012.26 1012.06 1012.69 1013.14 1013.07 1012.98 1013.34 1013.77 1014.17 1014.33 1014.68 1015.22 1015.84 1016.81 1017.64 1018.49 1019.42 1020.17 1020.86 1021.46 1022.42 1023.47 1024.55
1000.86 1001.83 1003.10 1003.89 1004.66 1005.22 1005.77 1006.24 1006.44 1006.55 1006.71 1006.92 1007.12 1007.87 1008.59 1008.96 1009.45 1010.50 1011.15 1011.87 1012.38 1012.30 1013.30 1013.29 1013.22 1012.98 1013.21 1013.62 1013.99 1014.56 1014.90 1015.34 1015.80 1016.66 1017.37 1018.30 1019.20 1019.98 1020.75 1021.71 1022.50 1023.45 1024.55 1025.57
1002.38 1003.60 1004.91 1005.52 1006.08 1006.58 1006.40 1006.21 1006.07 1006.50 1006.80 1007.34 1008.00 1008.54 1009.37 1009.99 1010.71 1011.37 1012.14 1012.71 1012.71 1013.31 1013.67 1013.34 1013.46 1013.49 1013.86 1014.20 1014.62 1015.23 1016.00 1016.46 1017.14 1017.80 1018.42 1019.18 1019.95 1020.83 1021.65 1022.44 1023.30 1024.13 1025.30 1026.18
1004.01 1004.92 1006.37 1007.29 1007.46 1007.19 1006.97 1006.68 1006.47 1006.96 1007.20 1007.77 1008.53 1009.30 1009.84 1010.89 1011.60 1011.88 1012.91 1013.28 1013.24 1013.24 1013.33 1013.66 1013.95 1013.96 1014.59 1014.98 1015.50 1016.08 1016.82 1017.46 1018.13 1018.75 1019.45 1020.18 1020.84 1021.62 1022.58 1023.33 1023.91 1024.63 1025.69 1026.43
1005.52 1006.80 1007.60 1007.88 1007.81 1007.75 1007.61 1007.64 1007.61 1007.38 1008.01 1008.22 1008.93 1010.10 1010.97 1011.45 1011.74 1012.14 1012.47 1012.83 1013.07 1013.57 1013.83 1014.11 1014.29 1014.56 1015.06 1015.62 1016.19 1016.81 1017.42 1018.12 1018.85 1019.51 1020.16 1020.85 1021.53 1022.25 1023.11 1023.91 1024.48 1025.23 1025.79 1026.44
1007.20 1008.28 1008.44 1008.41 1008.36 1008.52 1008.70 1008.59 1008.30 1007.96 1008.47 1009.12 1009.47 1010.15 1010.92 1011.22 1011.65 1012.14 1012.44 1013.07 1013.51 1013.86 1014.33 1014.64 1014.71 1014.95 1015.44 1016.07 1016.79 1017.36 1017.96 1018.69 1019.35 1020.04 1020.75 1021.43 1022.13 1022.80 1023.54 1024.35 1025.10 1025.53 1026.06 1026.55
Thickness
5395 5402 5408 5412 5415 5413 5415 5423 5421 5435 5439 5428 5430 5455 5480 5503 5520 5527 5526 5534 5539 5540 5546 5544 5540 5533 5537 5538 5529 5517 5513 5500 5479 5503 5511 5513 5503 5498 5489 5440 5464 5468 5464 5438
5381 5386 5392 5397 5403 5404 5408 5413 5402 5415 5421 5429 5431 5462 5484 5494 5513 5517 5520 5523 5533 5535 5532 5524 5536 5518 5517 5522 5518 5506 5506 5479 5450 5472 5488 5494 5481 5481 5476 5480 5460 5461 5425 5416
5364 5371 5379 5386 5392 5391 5392 5393 5387 5393 5403 5418 5445 5463 5473 5485 5507 5506 5507 5516 5520 5523 5521 5525 5522 5506 5504 5505 5497 5496 5486 5473 5456 5457 5465 5464 5454 5472 5475 5464 5445 5443 5430 5405
5353 5359 5367 5373 5382 5383 5381 5384 5386 5410 5406 5424 5443 5462 5479 5477 5488 5508 5510 5507 5517 5513 5507 5512 5508 5499 5485 5487 5484 5483 5466 5451 5441 5450 5462 5460 5453 5457 5464 5446 5464 5438 5426 5427
5341 5348 5357 5364 5370 5369 5368 5376 5394 5409 5427 5431 5429 5440 5463 5479 5494 5499 5507 5507 5510 5507 5499 5499 5498 5496 5472 5468 5472 5468 5459 5430 5416 5403 5449 5452 5446 5453 5456 5447 5452 5432 5425 5419
5332 5337 5343 5352 5359 5354 5361 5378 5410 5419 5429 5425 5423 5452 5469 5478 5484 5495 5503 5503 5501 5498 5498 5500 5492 5490 5489 5477 5462 5448 5435 5415 5395 5415 5454 5465 5441 5448 5450 5458 5463 5459 5445 5429
5323 5325 5331 5339 5348 5350 5362 5388 5413 5408 5414 5428 5445 5458 5460 5473 5484 5471 5497 5497 5491 5492 5493 5487 5481 5479 5482 5469 5466 5457 5423 5412 5417 5417 5425 5435 5440 5454 5459 5454 5455 5435 5416 5405
5316 5319 5323 5331 5338 5348 5357 5384 5395 5406 5416 5447 5444 5451 5458 5462 5469 5472 5480 5487 5488 5486 5480 5459 5454 5444 5457 5465 5460 5448 5437 5415 5406 5409 5430 5454 5448 5447 5447 5442 5443 5437 5418 5404
5315 5318 5321 5326 5335 5344 5355 5372 5390 5406 5412 5430 5456 5449 5460 5452 5463 5458 5456 5471 5476 5476 5456 5443 5441 5441 5450 5446 5455 5455 5436 5426 5408 5426 5439 5452 5439 5453 5454 5451 5430 5440 5422 5402
5319 5319 5322 5325 5332 5343 5353 5375 5384 5397 5409 5434 5450 5458 5456 5461 5452 5448 5449 5459 5461 5463 5446 5439 5439 5449 5469 5453 5447 5440 5429 5421 5423 5417 5423 5441 5452 5450 5451 5428 5430 5434 5419 5404
5326 5323 5323 5326 5333 5343 5354 5374 5383 5395 5403 5422 5435 5453 5462 5462 5458 5451 5446 5442 5441 5442 5434 5439 5444 5437 5442 5447 5451 5446 5440 5418 5417 5421 5427 5439 5438 5439 5434 5428 5424 5424 5417 5401
5334 5328 5327 5328 5334 5346 5354 5366 5381 5390 5406 5411 5426 5437 5452 5473 5469 5454 5456 5454 5450 5438 5439 5441 5438 5431 5430 5442 5452 5460 5438 5439 5426 5425 5416 5413 5422 5422 5427 5423 5410 5402 5397 5384
5337 5332 5329 5331 5338 5348 5364 5371 5383 5386 5399 5403 5409 5421 5443 5457 5460 5462 5443 5449 5451 5448 5449 5439 5436 5429 5440 5437 5441 5440 5439 5442 5415 5407 5402 5406 5413 5416 5413 5409 5401 5393 5386 5378
5336 5332 5330 5334 5342 5354 5365 5375 5386 5394 5398 5397 5403 5420 5429 5443 5453 5455 5456 5453 5451 5447 5438 5429 5422 5426 5440 5423 5434 5426 5421 5422 5411 5398 5399 5398 5404 5400 5397 5394 5391 5383 5377 5371
5336 5334 5336 5340 5348 5358 5367 5380 5394 5407 5404 5396 5398 5415 5424 5437 5445 5444 5446 5445 5442 5432 5426 5422 5420 5426 5424 5410 5422 5405 5416 5406 5399 5393 5403 5400 5390 5389 5389 5385 5381 5378 5373 5365
5340 5340 5343 5348 5355 5363 5365 5365 5393 5405 5407 5398 5389 5398 5416 5423 5432 5435 5438 5438 5434 5429 5423 5419 5423 5434 5422 5404 5403 5406 5410 5404 5401 5401 5401 5391 5386 5380 5382 5378 5374 5371 5367 5363
5352 5352 5356 5360 5365 5370 5377 5391 5402 5402 5416 5401 5388 5390 5410 5425 5426 5426 5426 5430 5428 5429 5426 5419 5417 5420 5416 5413 5390 5389 5396 5385 5391 5388 5384 5375 5375 5372 5373 5372 5369 5366 5363 5359
5368 5367 5367 5368 5368 5382 5386 5393 5407 5410 5411 5410 5392 5392 5405 5423 5414 5413 5421 5421 5423 5425 5426 5421 5413 5405 5402 5384 5392 5381 5384 5381 5376 5377 5386 5377 5372 5367 5365 5366 5363 5359 5356 5354
5374 5371 5369 5373 5381 5384 5390 5402 5407 5412 5413 5399 5399 5397 5393 5415 5412 5413 5416 5418 5397 5419 5414 5418 5413 5395 5392 5394 5389 5377 5380 5379 5372 5373 5370 5369 5364 5360 5358 5359 5358 5355 5350 5347
5374 5373 5378 5367 5378 5389 5395 5398 5396 5407 5412 5415 5401 5408 5399 5410 5408 5409 5404 5412 5403 5395 5403 5417 5396 5386 5405 5398 5387 5381 5378 5380 5372 5367 5358 5360 5359 5353 5352 5353 5354 5350 5347 5341
5387 5384 5381 5383 5387 5396 5393 5384 5389 5393 5393 5399 5403 5409 5408 5412 5399 5397 5408 5394 5398 5398 5401 5395 5387 5383 5386 5388 5381 5378 5377 5380 5374 5365 5361 5358 5356 5350 5346 5345 5347 5344 5340 5335
5394 5391 5389 5388 5389 5384 5388 5380 5390 5402 5395 5397 5398 5402 5405 5409 5415 5399 5405 5401 5391 5394 5398 5381 5376 5389 5394 5385 5382 5378 5381 5376 5371 5365 5357 5354 5350 5343 5340 5340 5340 5334 5325 5319
5393 5389 5380 5382 5376 5371 5379 5374 5385 5383 5391 5397 5397 5398 5400 5404 5406 5390 5392 5388 5376 5394 5361 5376 5382 5387 5393 5382 5377 5372 5368 5363 5360 5351 5347 5344 5339 5335 5330 5324 5321 5316 5311 5307
5382 5376 5363 5370 5374 5369 5386 5388 5389 5390 5397 5403 5399 5392 5394 5387 5386 5380 5380 5380 5381 5365 5362 5399 5383 5383 5375 5371 5368 5363 5354 5350 5344 5337 5335 5332 5326 5321 5318 5315 5312 5309 5303 5299
5375 5377 5363 5360 5364 5371 5378 5386 5395 5396 5395 5396 5395 5392 5393 5381 5378 5382 5374 5378 5365 5374 5377 5380 5371 5370 5363 5362 5356 5348 5340 5335 5331 5327 5322 5319 5317 5314 5309 5306 5305 5303 5296 5294
5370 5366 5362 5364 5373 5378 5382 5383 5387 5394 5390 5390 5392 5384 5371 5378 5379 5386 5376 5386 5380 5381 5372 5366 5365 5363 5360 5355 5347 5341 5337 5330 5323 5319 5316 5313 5310 5307 5302 5298 5297 5293 5292 5289
5364 5360 5357 5362 5368 5372 5372 5376 5380 5391 5386 5378 5386 5379 5386 5381 5382 5390 5378 5374 5374 5371 5361 5357 5358 5358 5353 5347 5339 5335 5331 5325 5319 5312 5309 5305 5301 5298 5294 5290 5287 5286 5283 5280